User: anonymous   Login
Location: Mason Neck State Park
(38.6428°N, 77.1981°W)
Time: 16:39:09
(UTC-04:00)
Language:

Cosmos 1400 Rocket - Orbit

View from above orbital plane
View from above orbital plane
View from above satellite
View from above satellite

Ground track
Ground track

The orbit data is extracted from the following two-line orbital elements,

1 13403U 82079B   16274.88433095 +.00001339 +00000-0 +88240-4 0  9999
2 13403 081.1706 206.2850 0035494 053.4348 307.0133 15.06331383857461
Epoch (UTC): 30 September 2016 21:13:26
Eccentricity: 0.0035494
inclination: 81.1706°
perigee height: 523 km
apogee height: 572 km
right ascension of ascending node: 206.2850°
argument of perigee: 53.4348°
revolutions per day: 15.06331383
mean anomaly at epoch: 307.0133°
orbit number at epoch: 85746

The dashed part of the orbit path shows where the satellite is in the earth's shadow,  

DLR